GW3504 Weather Reports


Display with metric or nautical units.
time (UTC)temp
F
wind
direction
speed
MPH
gust
MPH
rain 1hr
in
rain 24hr
in
rain mn
in
humidity
%
barometer
mb
20260504050525 65 0 0.0 0.0 0.00 0.00 0.00 57 1007.4
20260504045524 65 0 0.0 0.0 0.00 0.00 0.00 56 1007.4
20260504045024 66 0 0.0 0.0 0.00 0.00 0.00 54 1007.5
20260504044537 66 0 0.0 0.0 0.00 0.00 0.00 55 1007.6
20260504044024 66 0 0.0 0.0 0.00 0.00 0.00 54 1007.7
20260504043525 67 0 0.0 0.0 0.00 0.00 0.00 53 1007.8
20260504043042 67 0 0.0 0.0 0.00 0.00 0.00 52 1007.9
20260504042524 68 0 0.0 0.0 0.00 0.00 0.00 50 1007.9
20260504042024 68 0 0.0 0.0 0.00 0.00 0.00 50 1007.8
20260504041537 68 0 0.0 0.0 0.00 0.00 0.00 50 1007.9
20260504041024 68 0 0.0 0.0 0.00 0.00 0.00 50 1007.8
20260504040525 67 0 0.0 0.0 0.00 0.00 0.00 51 1007.8
20260504040042 67 0 0.0 0.0 0.00 0.00 0.00 51 1007.8
20260504035525 67 0 0.0 0.0 0.00 0.00 0.00 54 1007.8
20260504035024 67 0 0.0 0.0 0.00 0.00 0.00 52 1007.8
20260504034537 68 0 0.0 0.0 0.00 0.00 0.00 52 1007.8
20260504034030 68 0 0.0 0.0 0.00 0.00 0.00 50 1007.7
20260504033524 68 0 0.0 0.0 0.00 0.00 0.00 51 1007.8
20260504033036 69 0 0.0 0.0 0.00 0.00 0.00 50 1007.8
20260504032523 69 0 0.0 0.0 0.00 0.00 0.00 49 1007.9
20260504032024 69 0 0.0 0.0 0.00 0.00 0.00 50 1007.9
20260504031554 69 0 0.0 1.0 0.00 0.00 0.00 51 1007.8
20260504031023 69 0 0.0 9.0 0.00 0.00 0.00 50 1007.7
20260504030523 69 0 2.0 9.0 0.00 0.00 0.00 51 1007.9
20260504030043 69 0 0.0 2.0 0.00 0.00 0.00 51 1008.0
20260504025522 69 0 0.0 2.0 0.00 0.00 0.00 51 1007.9
20260504025023 68 0 0.0 0.0 0.00 0.00 0.00 51 1007.8
20260504024538 68 0 0.0 0.0 0.00 0.00 0.00 52 1007.8
20260504024023 69 0 0.0 0.0 0.00 0.00 0.00 52 1007.7
20260504023522 69 0 0.0 0.0 0.00 0.00 0.00 51 1007.7
20260504023038 69 0 0.0 0.0 0.00 0.00 0.00 51 1007.8
20260504022524 69 0 0.0 0.0 0.00 0.00 0.00 50 1007.8
20260504022022 70 0 0.0 0.0 0.00 0.00 0.00 52 1007.8
20260504021539 70 0 0.0 0.0 0.00 0.00 0.00 50 1007.8
20260504021020 70 0 0.0 0.0 0.00 0.00 0.00 50 1007.7
20260504020523 71 0 0.0 0.0 0.00 0.00 0.00 49 1007.8
20260504020040 71 0 0.0 0.0 0.00 0.00 0.00 50 1007.8
20260504015524 71 0 0.0 2.0 0.00 0.00 0.00 50 1007.8
20260504015025 71 0 0.0 2.0 0.00 0.00 0.00 50 1007.8
20260504014543 71 0 0.0 1.0 0.00 0.00 0.00 49 1007.8
20260504014023 71 0 0.0 0.0 0.00 0.00 0.00 49 1007.7
20260504013523 72 0 0.0 0.0 0.00 0.00 0.00 48 1007.8
20260504013041 73 0 0.0 0.0 0.00 0.00 0.00 48 1007.7
20260504012521 73 0 0.0 0.0 0.00 0.00 0.00 46 1007.7
20260504012024 73 0 0.0 0.0 0.00 0.00 0.00 45 1007.7
20260504011540 74 0 0.0 1.0 0.00 0.00 0.00 44 1007.6
20260504011021 74 0 0.0 2.0 0.00 0.00 0.00 43 1007.7
20260504010522 75 0 0.0 2.0 0.00 0.00 0.00 43 1007.6
20260504010048 75 0 0.0 2.0 0.00 0.00 0.00 42 1007.7
20260504005524 75 0 0.0 0.0 0.00 0.00 0.00 42 1007.7
20260504005021 75 0 0.0 0.0 0.00 0.00 0.00 42 1007.7
20260504004539 76 0 0.0 0.0 0.00 0.00 0.00 42 1007.8
20260504004024 76 0 0.0 0.0 0.00 0.00 0.00 41 1007.8
20260504003523 77 0 0.0 0.0 0.00 0.00 0.00 40 1007.8
20260504003040 77 0 0.0 1.0 0.00 0.00 0.00 40 1007.8
20260504002523 77 0 0.0 2.0 0.00 0.00 0.00 39 1007.9
20260504002022 77 0 0.0 2.0 0.00 0.00 0.00 39 1007.8
20260504001548 77 0 0.0 4.0 0.00 0.00 0.00 38 1007.9
20260504001024 78 0 0.0 5.0 0.00 0.00 0.00 38 1007.8
20260504000522 78 40 0.0 5.0 0.00 0.00 0.00 37 1007.8
20260504000038 78 0 0.0 5.0 0.00 0.00 0.00 37 1008.0
20260503235524 78 352 1.0 6.0 0.00 0.00 0.00 37 1008.2
20260503235021 79 25 1.0 6.0 0.00 0.00 0.00 37 1008.1
20260503234600 79 19 1.0 4.0 0.00 0.00 0.00 37 1008.1
20260503234023 79 28 0.0 4.0 0.00 0.00 0.00 37 1008.3
20260503233524 79 28 1.0 3.0 0.00 0.00 0.00 36 1008.2
20260503233044 79 0 1.0 4.0 0.00 0.00 0.00 35 1008.3
20260503232523 79 0 1.0 4.0 0.00 0.00 0.00 35 1008.3
20260503232023 80 41 1.0 5.0 0.00 0.00 0.00 34 1008.4
20260503231537 80 0 0.0 5.0 0.00 0.00 0.00 35 1008.6
20260503231028 80 5 1.0 5.0 0.00 0.00 0.00 34 1008.6
20260503230521 80 19 1.0 4.0 0.00 0.00 0.00 34 1008.5
20260503230038 80 19 1.0 7.0 0.00 0.00 0.00 35 1008.6
20260503225523 80 20 2.0 7.0 0.00 0.00 0.00 33 1008.7
20260503225023 81 11 2.0 5.0 0.00 0.00 0.00 34 1008.6
20260503224536 81 296 0.0 5.0 0.00 0.00 0.00 32 1008.7
20260503224021 81 0 1.0 5.0 0.00 0.00 0.00 34 1008.6
20260503223520 81 352 1.0 10.0 0.00 0.00 0.00 32 1008.8
20260503223039 81 315 5.0 10.0 0.00 0.00 0.00 32 1008.7
20260503222523 82 0 0.0 9.0 0.00 0.00 0.00 31 1008.7
20260503222023 82 321 2.0 9.0 0.00 0.00 0.00 31 1008.7
20260503221539 82 288 1.0 9.0 0.00 0.00 0.00 33 1008.6
20260503221023 82 248 3.0 9.0 0.00 0.00 0.00 32 1008.8
20260503220522 82 310 1.0 14.0 0.00 0.00 0.00 33 1008.8
20260503220036 82 351 2.0 14.0 0.00 0.00 0.00 34 1009.0
20260503215523 82 308 4.0 11.0 0.00 0.00 0.00 32 1009.0
20260503215024 82 340 2.0 11.0 0.00 0.00 0.00 34 1009.0
20260503214540 82 351 4.0 11.0 0.00 0.00 0.00 33 1009.2
20260503214023 82 283 2.0 13.0 0.00 0.00 0.00 33 1009.2
20260503213523 82 281 6.0 13.0 0.00 0.00 0.00 33 1009.2
20260503213038 82 273 4.0 13.0 0.00 0.00 0.00 32 1009.4
20260503212525 83 274 3.0 15.0 0.00 0.00 0.00 31 1009.4
20260503212023 83 301 3.0 16.0 0.00 0.00 0.00 30 1009.4
20260503211539 82 301 6.0 16.0 0.00 0.00 0.00 31 1009.4
20260503211023 83 316 2.0 13.0 0.00 0.00 0.00 31 1009.5
20260503210522 83 306 2.0 13.0 0.00 0.00 0.00 31 1009.6
20260503210036 82 213 4.0 16.0 0.00 0.00 0.00 30 1009.8
20260503205524 82 270 5.0 16.0 0.00 0.00 0.00 29 1009.8
20260503205023 82 302 6.0 14.0 0.00 0.00 0.00 28 1010.0
20260503204545 82 178 4.0 13.0 0.00 0.00 0.00 32 1010.0
20260503204021 83 335 6.0 13.0 0.00 0.00 0.00 31 1010.0
20260503203523 83 290 3.0 12.0 0.00 0.00 0.00 31 1010.1
20260503203052 83 301 5.0 11.0 0.00 0.00 0.00 31 1010.1
20260503202522 83 290 2.0 9.0 0.00 0.00 0.00 32 1010.2
20260503202028 82 46 2.0 11.0 0.00 0.00 0.00 33 1010.3
20260503201537 83 184 4.0 11.0 0.00 0.00 0.00 31 1010.4
20260503201023 83 0 0.0 11.0 0.00 0.00 0.00 33 1010.4
20260503200523 82 0 2.0 12.0 0.00 0.00 0.00 33 1010.4
20260503200039 82 300 3.0 13.0 0.00 0.00 0.00 36 1010.6
20260503195524 81 0 6.0 13.0 0.00 0.00 0.00 33 1010.6
20260503195027 82 277 2.0 9.0 0.00 0.00 0.00 36 1010.7
20260503194552 82 267 2.0 11.0 0.00 0.00 0.00 35 1010.7
20260503194023 81 140 2.0 11.0 0.00 0.00 0.00 35 1010.8
20260503193527 80 311 6.0 11.0 0.00 0.00 0.00 36 1010.8
20260503193045 81 192 2.0 11.0 0.00 0.00 0.00 35 1010.8
20260503192524 80 296 1.0 11.0 0.00 0.00 0.00 36 1010.9
20260503192023 81 274 2.0 11.0 0.00 0.00 0.00 36 1011.0
20260503191538 80 297 4.0 11.0 0.00 0.00 0.00 35 1011.0
20260503191023 79 311 4.0 9.0 0.00 0.00 0.00 37 1011.2
20260503190523 79 310 3.0 10.0 0.00 0.00 0.00 37 1011.3
20260503190039 79 254 3.0 11.0 0.00 0.00 0.00 36 1011.4
20260503185523 80 281 1.0 11.0 0.00 0.00 0.00 35 1011.5
20260503185024 80 304 3.0 11.0 0.00 0.00 0.00 37 1011.6
20260503184539 79 233 3.0 11.0 0.00 0.00 0.00 37 1011.6
20260503184024 78 247 5.0 11.0 0.00 0.00 0.00 37 1011.7
20260503183522 78 282 3.0 10.0 0.00 0.00 0.00 38 1011.7
20260503183042 78 288 2.0 9.0 0.00 0.00 0.00 38 1011.7
20260503182523 78 294 2.0 12.0 0.00 0.00 0.00 40 1011.9
20260503182024 78 295 3.0 14.0 0.00 0.00 0.00 39 1012.0
20260503181539 77 296 6.0 14.0 0.00 0.00 0.00 38 1012.1
20260503181024 78 259 4.0 11.0 0.00 0.00 0.00 39 1012.1
20260503180524 78 287 2.0 7.0 0.00 0.00 0.00 39 1012.1
20260503180041 78 67 1.0 9.0 0.00 0.00 0.00 42 1012.2
20260503175523 77 121 2.0 10.0 0.00 0.00 0.00 43 1012.2
20260503175024 77 212 3.0 10.0 0.00 0.00 0.00 44 1012.2
20260503174537 76 263 2.0 12.0 0.00 0.00 0.00 45 1012.3
20260503174027 76 343 2.0 13.0 0.00 0.00 0.00 45 1012.3
20260503173523 75 321 3.0 15.0 0.00 0.00 0.00 46 1012.5
20260503173044 75 137 3.0 15.0 0.00 0.00 0.00 46 1012.5
20260503172522 75 175 2.0 10.0 0.00 0.00 0.00 45 1012.6
20260503172023 74 175 2.0 9.0 0.00 0.00 0.00 46 1012.7
20260503171547 74 13 3.0 10.0 0.00 0.00 0.00 46 1012.9
20260503171026 73 167 3.0 13.0 0.00 0.00 0.00 46 1013.0
20260503170524 73 202 2.0 13.0 0.00 0.00 0.00 47 1013.0
20260503150523 65 295 5.0 14.0 0.00 0.00 0.00 52 1013.5
20260503131028 55 120 2.0 11.0 0.00 0.00 0.00 61 1014.5
20260503130527 54 238 1.0 11.0 0.00 0.00 0.00 62 1014.6
20260503110524 51 135 3.0 13.0 0.00 0.00 0.00 54 1014.7
20260503081537 50 169 2.0 9.0 0.00 0.00 0.00 56 1016.1
20260503081029 50 206 2.0 9.0 0.00 0.00 0.00 55 1016.1
20260503080524 50 167 2.0 9.0 0.00 0.00 0.00 56 1016.1
20260503072525 50 0 0.0 8.0 0.00 0.00 0.00 58 1016.4
20260503072025 50 196 0.0 7.0 0.00 0.00 0.00 57 1016.5
20260503071551 50 0 1.0 6.0 0.00 0.00 0.00 57 1016.4
20260503071025 50 0 1.0 6.0 0.00 0.00 0.00 58 1016.5
20260503070527 50 0 1.0 6.0 0.00 0.00 0.00 58 1016.5